Temp
70 70 69 70 68 68 67 67 66 68 67 67 66 67 67 68 68 69 68 66 66 64 63 63 63 64 62 62 62 61 60 61 63 60 65 65 66 67 67 68 68 67 68
68 68 69 69 67 66 66 66 66 67 66 66 65 65 65 65 65 66 66 66 65 64 63 63 62 62 61 60 61 60 58 60 62 57 58 59 61 64 66 67 67 66 67
67 68 68 68 67 66 64 65 66 66 66 65 64 65 66 65 63 65 65 65 64 63 62 62 61 61 60 59 59 59 57 54 58 59 55 56 57 59 64 64 65 66 66
66 66 66 67 67 67 66 65 65 65 66 65 63 61 60 60 63 64 65 64 65 63 62 61 60 60 60 59 59 60 58 57 51 54 59 59 59 55 56 62 63 65 65
66 65 65 64 66 65 64 64 64 64 65 63 62 61 60 61 63 64 63 63 64 63 61 60 59 58 59 59 58 57 58 58 54 51 51 53 57 61 54 52 58 63 64
65 65 65 65 66 66 65 64 63 63 64 62 61 60 58 59 59 61 61 62 63 63 62 60 59 59 58 58 58 58 57 57 57 55 53 51 50 52 53 52 52 52 58
64 65 65 64 64 64 63 64 63 62 62 61 60 59 59 59 59 60 60 60 61 61 61 60 59 59 59 58 58 56 56 56 55 56 56 56 54 54 53 50 49 49 54
65 64 65 63 63 63 63 62 62 61 62 61 59 60 60 59 59 60 60 60 61 61 61 59 59 59 58 58 58 56 56 56 55 55 56 56 57 58 56 52 49 46 50
63 63 64 64 63 63 62 61 61 61 61 60 59 59 59 58 58 59 60 60 60 60 59 59 58 58 58 58 57 55 55 56 56 55 55 55 56 56 57 54 52 48 43
63 63 63 64 64 64 63 62 61 61 60 60 60 59 59 59 59 59 58 59 60 60 58 58 58 58 58 58 57 56 56 56 55 56 55 55 55 56 55 54 54 53 49
61 62 63 64 64 63 63 62 61 60 60 60 59 59 58 58 59 58 58 58 58 58 58 57 57 56 57 57 56 56 55 54 54 54 54 53 55 53 54 53 53 51 50
63 62 62 63 63 63 62 61 60 59 59 59 59 58 58 58 58 57 57 58 57 58 57 57 56 56 56 56 55 54 55 53 52 53 52 52 54 52 52 52 50 50 51
60 61 62 61 61 62 62 61 60 58 58 58 57 56 57 56 56 56 56 57 56 56 57 56 55 55 55 54 55 54 54 53 53 52 51 51 51 50 50 50 49 49 51
59 59 59 60 60 61 61 60 60 58 57 55 54 54 55 54 54 55 55 54 55 54 55 55 55 54 54 54 53 53 52 52 53 52 51 51 50 49 49 49 49 49 47
58 58 58 59 60 60 60 60 58 56 55 53 53 53 53 53 53 53 53 54 54 54 53 53 53 53 53 54 51 50 50 50 50 51 52 51 49 47 48 48 48 47 46
58 58 59 59 59 59 58 58 57 55 55 52 51 52 52 52 52 52 52 52 52 53 52 52 51 51 52 48 47 46 47 49 49 49 50 51 48 48 47 47 47 46 43
58 58 59 59 59 59 59 57 57 56 53 51 51 52 52 51 51 51 50 50 50 50 50 50 50 49 49 49 46 46 46 48 48 49 49 49 51 48 49 49 48 47 47
57 58 59 60 61 62 61 59 58 56 53 51 51 52 51 50 50 49 48 49 49 48 48 48 48 48 49 48 46 45 46 48 49 49 48 48 48 48 48 46 45 46 47
60 60 60 60 60 59 60 58 57 56 54 53 53 53 52 49 49 48 48 49 48 47 47 48 46 46 47 48 46 45 46 46 47 48 49 48 47 48 47 44 42 43 44
59 58 59 58 57 58 59 56 55 55 53 53 53 54 52 49 48 49 48 49 48 47 47 45 43 44 44 46 46 45 45 44 45 47 48 48 46 46 45 42 41 40 42
57 57 55 54 55 56 55 52 52 51 53 52 52 51 50 49 49 49 49 49 48 47 46 46 47 47 47 47 48 47 44 44 44 45 45 47 47 46 45 44 41 40 42
53 53 51 51 53 52 50 48 49 51 51 50 49 49 50 50 50 48 49 49 48 47 47 47 47 49 50 49 49 47 46 45 43 42 44 44 45 45 44 43 43 44 44
52 52 51 50 51 51 49 46 49 50 50 49 49 50 50 50 50 49 48 48 48 47 47 45 44 45 47 48 48 48 47 46 43 44 44 45 44 44 43 43 43 44 40
49 49 48 48 48 51 50 50 50 51 50 48 49 50 49 50 50 49 49 48 46 45 43 42 41 43 44 45 46 46 46 46 45 44 43 43 43 44 43 42 41 41 40
47 47 47 47 48 50 50 51 50 50 48 48 47 47 48 48 48 48 48 48 49 46 44 43 41 40 40 43 45 43 42 42 42 42 40 39 38 38 39 39 40 39 39
46 46 46 46 47 48 48 49 49 48 46 45 45 45 46 46 46 45 46 47 45 45 44 43 42 42 42 43 42 42 42 42 42 39 36 36 36 36 37 37 37 37 38
MSLP
1014.81 1015.54 1015.94 1016.37 1016.69 1016.75 1016.81 1016.84 1016.92 1016.79 1016.75 1016.58 1016.27 1015.80 1015.60 1015.53 1015.36 1015.22 1015.44 1015.70 1015.62 1015.73 1015.62 1015.37 1015.13 1014.97 1014.89 1014.63 1014.56 1014.36 1013.91 1013.24 1012.86 1012.29 1011.00 1010.90 1011.09 1010.89 1010.83 1010.90 1010.98 1011.13 1011.13
1014.72 1015.33 1015.70 1016.17 1016.57 1016.68 1016.83 1016.83 1016.84 1016.81 1016.69 1016.77 1016.71 1016.29 1016.06 1015.87 1015.61 1015.47 1015.49 1015.54 1015.55 1015.53 1015.53 1015.36 1015.27 1015.07 1015.01 1014.84 1014.56 1014.45 1014.25 1013.57 1013.22 1012.83 1012.01 1010.86 1010.89 1010.83 1010.89 1010.97 1011.03 1011.18 1011.23
1014.31 1014.99 1015.44 1015.88 1016.33 1016.46 1016.80 1016.87 1016.88 1016.85 1016.65 1016.71 1016.75 1016.24 1015.89 1015.52 1015.27 1014.93 1015.03 1015.10 1015.39 1015.42 1015.60 1015.41 1015.30 1015.19 1015.07 1014.83 1014.76 1014.61 1014.50 1014.13 1013.76 1013.63 1013.28 1011.71 1010.91 1010.91 1010.80 1011.05 1011.08 1011.18 1011.14
1014.78 1015.09 1015.45 1015.69 1015.97 1016.42 1016.84 1016.82 1016.81 1016.83 1016.73 1016.61 1016.77 1016.42 1016.05 1015.43 1015.04 1015.06 1014.97 1014.99 1014.99 1015.21 1015.42 1015.41 1015.33 1015.31 1015.11 1014.91 1014.71 1014.47 1014.51 1014.40 1014.39 1014.20 1013.70 1013.30 1012.73 1011.85 1011.09 1010.96 1011.10 1011.20 1011.15
1014.63 1015.07 1015.52 1015.93 1016.21 1016.53 1016.76 1016.83 1016.81 1016.79 1016.66 1016.57 1016.72 1016.51 1016.02 1015.57 1015.18 1015.00 1014.88 1014.75 1014.67 1014.86 1015.18 1015.34 1015.25 1015.31 1015.22 1015.02 1014.94 1014.76 1014.51 1014.35 1014.60 1014.61 1014.33 1013.92 1013.03 1012.44 1012.50 1011.78 1011.14 1011.15 1011.17
1014.65 1015.11 1015.53 1015.90 1016.02 1016.35 1016.57 1016.65 1016.64 1016.56 1016.46 1016.55 1016.51 1016.39 1016.00 1015.65 1015.27 1014.98 1014.73 1014.49 1014.45 1014.64 1014.87 1015.17 1015.23 1015.17 1015.19 1015.17 1015.02 1014.88 1014.70 1014.48 1014.33 1014.41 1014.52 1014.33 1014.03 1013.31 1013.00 1012.74 1012.54 1012.21 1011.75
1014.41 1014.87 1015.17 1015.54 1015.87 1016.10 1016.40 1016.49 1016.38 1016.37 1016.40 1016.27 1016.27 1016.18 1015.94 1015.59 1015.23 1014.92 1014.64 1014.46 1014.26 1014.27 1014.47 1014.79 1014.90 1014.90 1014.93 1015.02 1015.04 1014.97 1014.84 1014.67 1014.50 1014.33 1014.07 1014.09 1014.00 1013.88 1013.72 1013.65 1013.29 1012.91 1012.44
1013.94 1014.49 1014.95 1015.41 1015.66 1016.03 1016.19 1016.31 1016.29 1016.26 1016.25 1016.18 1016.20 1016.06 1015.84 1015.49 1015.21 1014.84 1014.66 1014.45 1014.21 1014.25 1014.39 1014.63 1014.73 1014.75 1014.78 1014.85 1014.80 1014.79 1014.71 1014.61 1014.52 1014.34 1014.19 1013.95 1013.70 1013.48 1013.34 1013.56 1013.63 1013.21 1012.56
1014.01 1014.36 1014.84 1015.26 1015.52 1015.70 1015.99 1016.17 1016.25 1016.21 1016.13 1016.15 1016.10 1015.93 1015.72 1015.54 1015.22 1014.91 1014.67 1014.42 1014.29 1014.27 1014.34 1014.41 1014.55 1014.45 1014.47 1014.43 1014.42 1014.43 1014.38 1014.29 1014.28 1014.25 1014.11 1013.92 1013.74 1013.59 1013.42 1013.61 1013.71 1013.54 1013.07
1013.82 1014.16 1014.56 1014.86 1015.18 1015.48 1015.75 1015.99 1016.13 1016.04 1016.01 1016.03 1015.99 1015.86 1015.67 1015.47 1015.19 1014.91 1014.58 1014.41 1014.27 1014.19 1014.23 1014.21 1014.23 1014.19 1014.20 1014.22 1014.20 1014.15 1014.01 1013.95 1013.91 1013.86 1013.89 1013.81 1013.67 1013.51 1013.43 1013.43 1013.34 1013.32 1013.20
1013.49 1013.84 1014.18 1014.48 1014.79 1015.15 1015.43 1015.68 1015.89 1015.95 1015.91 1015.96 1016.00 1015.86 1015.64 1015.45 1015.16 1014.89 1014.65 1014.46 1014.39 1014.31 1014.24 1014.18 1014.12 1014.04 1013.94 1013.85 1013.79 1013.75 1013.68 1013.67 1013.63 1013.59 1013.54 1013.45 1013.41 1013.37 1013.30 1013.27 1013.23 1013.19 1013.17
1013.29 1013.73 1014.11 1014.30 1014.46 1014.71 1015.05 1015.31 1015.54 1015.70 1015.79 1015.93 1015.87 1015.70 1015.51 1015.38 1015.12 1014.89 1014.65 1014.44 1014.27 1014.10 1014.03 1013.92 1013.83 1013.76 1013.69 1013.67 1013.63 1013.57 1013.50 1013.44 1013.35 1013.27 1013.22 1013.16 1013.18 1013.22 1013.19 1013.07 1012.92 1012.83 1012.79
1013.13 1013.43 1013.70 1013.88 1014.11 1014.37 1014.69 1014.94 1015.16 1015.46 1015.70 1015.88 1015.86 1015.73 1015.52 1015.49 1015.27 1015.00 1014.76 1014.51 1014.32 1014.15 1013.93 1013.80 1013.66 1013.54 1013.48 1013.43 1013.35 1013.23 1013.13 1013.14 1013.13 1013.06 1012.97 1012.84 1012.73 1012.65 1012.68 1012.75 1012.76 1012.75 1012.64
1012.87 1013.09 1013.32 1013.52 1013.72 1013.99 1014.34 1014.65 1014.96 1015.31 1015.53 1015.71 1015.78 1015.64 1015.47 1015.45 1015.30 1015.05 1014.83 1014.64 1014.39 1014.14 1013.87 1013.68 1013.53 1013.45 1013.37 1013.28 1013.24 1013.21 1013.17 1013.01 1012.85 1012.82 1012.79 1012.73 1012.73 1012.66 1012.56 1012.33 1012.18 1012.25 1012.28
1012.57 1012.79 1012.99 1013.20 1013.46 1013.73 1014.01 1014.31 1014.64 1014.98 1015.30 1015.49 1015.50 1015.45 1015.41 1015.38 1015.22 1015.03 1014.87 1014.66 1014.41 1014.15 1013.95 1013.76 1013.49 1013.30 1013.13 1013.02 1013.11 1013.19 1013.01 1012.71 1012.41 1012.27 1012.27 1012.25 1012.25 1012.33 1012.43 1012.49 1012.20 1012.00 1011.88
1011.84 1012.19 1012.49 1012.76 1012.96 1013.23 1013.50 1013.72 1014.01 1014.35 1014.68 1014.90 1014.98 1015.02 1015.06 1015.02 1015.01 1014.95 1014.81 1014.58 1014.32 1014.03 1013.85 1013.61 1013.41 1013.26 1013.08 1013.02 1013.26 1013.32 1013.00 1012.64 1012.36 1012.04 1011.89 1011.86 1011.75 1011.68 1011.76 1011.73 1011.80 1011.87 1011.67
1011.49 1011.89 1012.26 1012.59 1012.88 1013.11 1013.24 1013.34 1013.50 1013.79 1014.19 1014.41 1014.52 1014.59 1014.66 1014.72 1014.71 1014.65 1014.53 1014.32 1014.09 1013.92 1013.70 1013.49 1013.34 1013.14 1012.98 1012.85 1012.93 1012.88 1012.71 1012.34 1011.98 1011.79 1011.61 1011.46 1011.32 1011.25 1011.29 1011.23 1011.10 1011.04 1011.04
1011.40 1011.71 1011.99 1012.24 1012.41 1012.55 1012.75 1012.99 1013.21 1013.47 1013.72 1013.91 1013.97 1014.08 1014.22 1014.35 1014.47 1014.53 1014.36 1014.14 1013.89 1013.72 1013.55 1013.41 1013.17 1012.94 1012.62 1012.48 1012.45 1012.44 1012.28 1011.83 1011.48 1011.35 1011.12 1011.04 1010.95 1010.89 1010.90 1010.87 1010.68 1010.46 1010.08
1011.08 1011.49 1011.82 1012.08 1012.20 1012.32 1012.32 1012.44 1012.63 1012.99 1013.32 1013.46 1013.56 1013.66 1013.87 1013.98 1013.97 1013.84 1013.65 1013.53 1013.58 1013.45 1013.25 1013.00 1012.91 1012.71 1012.37 1012.24 1012.10 1012.15 1011.83 1011.51 1011.29 1011.07 1010.76 1010.65 1010.61 1010.64 1010.66 1010.71 1010.50 1010.14 1009.49
1011.31 1011.64 1011.88 1012.19 1012.33 1012.24 1012.20 1012.19 1012.27 1012.33 1012.49 1012.93 1013.09 1013.06 1013.35 1013.53 1013.41 1013.27 1013.19 1013.24 1013.19 1013.04 1012.85 1012.50 1012.28 1012.18 1011.92 1011.53 1011.39 1011.34 1011.32 1010.90 1010.64 1010.39 1010.14 1010.06 1010.15 1010.36 1010.51 1010.53 1010.27 1009.77 1009.16
1011.25 1011.69 1011.94 1011.93 1011.96 1012.07 1012.19 1012.32 1012.47 1012.50 1012.62 1012.85 1012.99 1013.03 1013.06 1013.19 1013.11 1012.92 1012.73 1012.50 1012.53 1012.43 1012.23 1011.90 1011.63 1011.32 1010.99 1010.73 1010.54 1010.61 1010.65 1010.33 1010.03 1009.74 1009.51 1009.39 1009.42 1009.47 1009.75 1009.87 1009.73 1009.32 1009.00
1011.33 1011.76 1011.97 1011.99 1012.16 1012.42 1012.60 1012.54 1012.42 1012.47 1012.66 1012.73 1012.79 1012.75 1012.70 1012.60 1012.47 1012.42 1012.28 1011.96 1011.87 1011.74 1011.57 1011.28 1010.86 1010.50 1010.25 1009.92 1009.78 1009.77 1009.90 1009.99 1009.93 1009.51 1009.14 1008.88 1008.79 1008.93 1008.97 1009.01 1008.81 1008.58 1008.39
1011.58 1011.80 1011.86 1011.93 1011.93 1012.16 1012.42 1012.41 1012.35 1012.37 1012.47 1012.45 1012.33 1012.13 1011.88 1011.72 1011.71 1011.67 1011.50 1011.34 1011.19 1010.98 1010.76 1010.66 1010.38 1010.01 1009.72 1009.44 1009.22 1009.03 1008.94 1009.01 1009.13 1008.85 1008.59 1008.23 1008.17 1008.14 1008.11 1008.10 1007.81 1007.68 1007.50
1011.96 1012.01 1011.99 1011.99 1012.03 1011.94 1011.94 1012.04 1012.08 1012.03 1011.96 1011.83 1011.68 1011.53 1011.35 1011.15 1010.97 1010.78 1010.70 1010.56 1010.49 1010.37 1010.25 1010.12 1009.91 1009.48 1009.17 1008.96 1008.71 1008.49 1008.30 1008.15 1008.03 1007.88 1007.67 1007.55 1007.33 1007.27 1007.07 1006.92 1006.72 1006.52 1006.40
1012.19 1012.39 1012.24 1012.13 1012.07 1012.04 1011.72 1011.58 1011.66 1011.68 1011.63 1011.45 1011.26 1011.12 1010.97 1010.73 1010.47 1010.27 1009.97 1009.65 1009.29 1009.37 1009.40 1009.31 1009.32 1009.14 1008.69 1008.39 1008.21 1008.22 1008.01 1007.87 1007.77 1007.63 1007.33 1007.02 1006.64 1006.33 1006.08 1005.82 1005.61 1005.38 1005.31
1012.57 1012.59 1012.40 1012.17 1011.96 1011.94 1011.85 1011.48 1011.45 1011.47 1011.41 1011.05 1010.76 1010.58 1010.39 1010.16 1009.90 1009.63 1009.21 1009.02 1008.93 1008.87 1008.94 1008.84 1008.93 1008.57 1008.30 1007.97 1007.66 1007.56 1007.39 1007.19 1007.08 1006.88 1006.52 1006.22 1005.92 1005.62 1005.24 1005.01 1004.77 1004.60 1004.48
Wind_Speed
7 4 2 1 1 1 3 4 4 5 5 5 6 6 6 6 6 4 5 5 4 4 5 5 6 6 6 7 7 8 10 7 6 7 3 2 2 1 1 2 2 2 1
8 5 3 2 2 2 3 3 4 6 5 5 6 6 6 6 7 6 6 6 5 4 5 6 6 6 6 7 6 7 7 7 6 6 6 3 4 4 2 1 0 0 1
8 6 5 1 1 1 2 3 5 6 6 7 6 6 6 5 5 5 4 5 5 4 5 5 5 6 5 5 6 6 7 6 7 6 4 4 3 4 4 4 3 3 3
5 4 2 0 1 3 3 4 6 7 7 8 7 9 7 7 6 6 5 5 6 5 4 5 5 6 5 6 5 4 5 4 4 5 4 6 7 4 3 3 4 3 5
5 4 2 1 3 3 4 4 6 7 7 7 8 7 8 7 6 5 7 7 6 5 4 4 4 5 5 5 6 6 5 4 2 4 3 6 6 4 3 6 4 4 5
6 5 3 2 2 1 3 4 6 7 7 7 7 8 9 8 7 7 6 5 4 3 3 4 4 5 5 6 6 6 6 6 4 3 3 4 3 6 6 6 7 8 8
6 6 5 3 2 2 4 5 6 7 7 7 7 8 8 8 8 7 6 6 4 3 3 2 4 4 4 5 5 6 6 6 5 6 4 4 4 4 4 4 6 7 7
7 7 5 4 3 3 4 5 6 7 7 8 8 7 8 6 6 6 6 5 4 4 2 3 4 5 5 5 5 4 4 5 5 7 6 5 5 4 4 4 5 7 6
7 7 6 5 4 4 4 5 6 6 6 7 7 8 8 8 7 8 6 5 5 4 4 4 5 5 5 6 5 4 6 5 5 5 6 5 5 5 4 3 4 4 5
8 8 7 6 5 5 4 4 5 5 5 6 7 7 8 7 7 7 7 6 6 5 5 5 6 6 6 6 6 5 6 6 5 5 6 6 5 5 4 4 5 5 6
10 7 7 7 7 6 5 5 4 4 5 5 7 7 7 7 8 6 6 6 6 6 6 6 6 6 6 6 6 7 7 7 6 6 6 7 6 5 5 4 5 5 5
11 10 10 9 8 8 6 5 3 4 5 5 7 7 7 7 7 6 6 6 6 6 6 6 6 6 6 6 7 7 7 7 7 7 7 7 6 6 6 5 6 6 7
11 11 11 10 9 9 6 5 4 4 4 5 7 7 7 7 8 7 7 7 7 7 6 6 6 7 6 7 7 7 8 7 8 8 8 8 7 7 5 6 5 5 6
9 8 7 7 7 8 6 6 5 4 4 5 6 7 6 6 7 7 7 7 7 7 6 6 6 6 7 7 7 7 7 8 8 8 8 8 8 8 7 7 7 6 6
8 7 6 5 7 7 7 7 6 5 5 5 6 6 6 6 7 7 7 7 7 6 6 6 6 6 5 5 5 7 8 8 8 8 8 8 8 9 8 7 7 7 6
7 5 6 7 8 8 8 8 7 7 6 6 5 5 6 6 5 6 7 7 6 6 5 6 6 6 5 3 6 8 8 8 9 8 8 8 8 10 15 16 18 14 8
6 6 6 5 6 7 7 8 7 5 6 5 6 6 5 6 5 6 6 6 6 6 6 6 5 6 6 4 7 8 7 7 8 8 8 7 7 7 8 11 14 16 19
7 6 5 6 8 8 9 9 8 8 7 7 7 6 6 6 6 6 7 7 6 6 6 6 6 7 6 7 8 9 8 8 8 8 8 8 9 8 7 8 9 10 10
4 4 5 7 9 11 10 8 8 8 7 8 8 7 6 6 6 7 7 6 6 6 7 7 7 8 8 9 8 8 7 7 8 8 8 7 8 10 9 8 10 11 10
4 6 7 8 10 10 9 8 9 9 9 8 9 7 5 7 8 7 7 6 6 7 6 8 7 11 10 12 12 9 6 7 7 7 7 9 9 12 13 9 9 11 10
5 6 6 7 8 8 7 7 8 8 5 5 6 5 6 7 8 8 7 7 8 8 9 9 9 10 10 11 13 13 8 7 7 7 6 6 8 8 12 14 10 12 11
4 4 5 5 5 4 4 6 7 4 4 4 6 6 7 7 6 8 8 9 8 9 10 10 9 8 10 11 11 13 13 14 10 10 8 8 12 13 14 14 18 21 18
4 3 3 3 3 1 2 4 4 3 4 6 8 8 9 8 8 9 9 8 9 8 8 8 7 8 7 7 11 13 14 14 11 9 12 15 15 16 16 23 23 22 9
4 3 3 3 4 3 4 5 6 6 7 9 9 9 9 9 9 7 8 8 8 8 8 7 8 8 8 7 7 8 7 10 9 11 10 12 14 17 18 17 14 10 9
4 4 4 5 7 7 6 5 6 7 7 9 9 9 8 10 10 10 9 9 10 8 7 8 7 8 9 9 12 12 9 9 12 15 9 10 10 10 9 9 9 8 8
6 6 7 8 8 8 9 6 5 7 9 10 8 8 8 8 8 9 10 12 16 17 15 18 15 11 18 22 22 21 21 22 23 11 10 10 11 11 10 9 9 7 10
Wind_Direction
149 169 134 143 323 57 357 351 341 345 329 319 316 311 308 306 289 272 288 274 284 297 310 306 312 318 317 320 321 322 320 314 328 291 289 193 233 169 183 196 122 106 40
180 164 159 147 115 71 31 12 10 356 351 330 317 307 303 301 304 298 285 276 283 295 293 309 311 314 316 318 326 331 328 318 344 339 287 259 173 202 185 209 130 107 292
178 163 171 158 224 43 6 335 337 336 341 339 314 302 284 249 251 257 232 250 266 283 284 296 303 307 305 307 317 329 327 334 325 24 327 313 352 352 140 213 230 259 267
187 173 172 165 13 301 298 300 320 329 330 340 319 315 301 301 309 305 294 288 267 267 269 282 290 300 302 299 310 315 320 330 332 327 330 313 324 330 320 168 217 245 279
182 178 170 12 323 303 314 315 314 321 328 335 320 314 310 313 308 296 289 284 274 250 257 266 283 287 297 301 309 305 313 315 320 327 330 331 313 256 294 307 321 335 311
188 198 188 244 283 284 312 315 315 321 333 329 327 319 318 314 310 305 305 296 289 283 253 263 275 289 296 301 309 310 299 302 306 235 281 294 307 337 330 318 309 323 292
194 207 216 237 274 321 325 323 331 330 332 335 334 326 315 312 304 307 305 307 297 276 254 247 274 282 298 295 298 308 308 297 297 307 285 257 259 269 288 304 293 299 305
196 201 209 222 247 280 312 320 325 324 331 339 332 324 321 312 306 304 305 296 298 300 311 276 278 285 284 284 283 285 287 289 283 288 296 295 287 274 254 258 293 300 297
206 208 204 220 238 263 289 308 316 321 337 337 333 331 332 323 312 308 302 296 302 291 286 274 271 271 270 269 273 272 281 284 291 290 288 280 284 286 291 302 260 283 298
206 213 213 222 234 250 273 278 287 312 327 336 332 327 324 328 319 310 303 306 301 290 278 270 266 269 269 269 268 272 273 276 276 273 277 280 280 280 282 282 266 256 262
213 208 221 232 237 242 250 260 275 309 322 330 321 319 326 332 326 322 319 316 312 295 289 284 282 279 276 271 264 264 270 272 273 275 271 271 273 272 273 266 266 266 262
224 228 240 258 261 247 246 250 267 289 302 308 309 317 320 326 321 322 323 316 304 298 285 286 282 278 276 275 274 277 281 277 276 279 276 271 272 270 270 269 261 256 259
244 246 253 258 257 244 240 248 253 266 285 298 309 308 314 318 318 325 330 327 322 311 302 291 285 287 288 284 278 274 275 276 277 275 272 269 264 256 248 251 258 268 275
240 245 254 255 245 231 242 253 253 250 268 282 287 292 301 311 316 321 323 320 317 305 307 304 298 293 291 292 291 288 288 285 281 280 275 274 271 268 263 253 248 249 256
233 239 254 257 240 233 242 241 242 243 246 260 271 279 294 300 307 311 310 309 307 307 309 304 302 302 296 287 320 309 294 281 273 272 271 265 256 269 276 282 272 260 251
225 244 234 234 231 244 246 241 232 227 223 239 253 263 267 281 293 297 301 299 302 306 309 307 307 304 297 23 314 297 290 286 281 277 273 276 268 247 246 254 256 254 266
222 217 219 237 262 268 266 250 237 211 220 239 250 259 265 272 277 284 287 289 298 303 298 297 297 295 295 276 291 296 283 282 277 276 277 278 272 259 261 261 256 251 250
206 211 234 252 261 275 271 258 243 233 229 238 250 251 248 256 270 281 284 285 286 288 288 287 284 284 278 263 276 288 283 275 276 274 273 272 275 274 280 286 279 272 265
219 264 281 281 286 288 285 257 252 243 247 248 255 247 245 257 260 263 268 276 281 283 283 281 283 282 286 288 267 285 290 286 285 282 277 270 275 278 271 269 273 273 269
247 279 292 289 284 283 280 260 256 254 247 247 255 256 247 251 259 265 273 278 275 274 278 274 259 258 268 274 266 248 258 267 269 271 271 265 249 270 284 277 277 279 280
274 292 280 275 288 299 300 269 271 270 284 275 274 259 253 256 268 276 274 269 268 266 270 272 270 264 254 264 262 255 252 257 266 265 268 267 265 259 269 272 268 267 282
284 285 280 290 310 317 291 275 273 298 282 272 264 262 262 263 262 263 267 272 272 271 271 274 273 267 273 266 258 256 255 269 278 274 271 267 265 263 266 272 268 272 277
283 266 271 269 255 155 246 261 273 271 261 262 264 267 267 268 263 264 268 271 266 264 267 270 273 275 275 277 280 275 265 263 261 261 267 279 283 278 279 273 269 268 259
284 282 266 264 275 263 238 251 262 264 267 272 272 272 273 272 271 267 260 258 258 260 260 262 269 277 283 284 283 284 284 274 263 257 257 256 260 263 265 271 269 256 251
303 279 289 291 290 293 287 289 291 287 285 282 280 279 275 270 270 263 260 257 257 257 265 263 269 273 273 270 281 291 288 284 279 288 283 278 271 269 264 258 255 251 246
315 302 295 289 288 293 292 295 290 279 275 278 275 270 272 270 271 273 274 251 248 255 250 257 256 268 269 280 284 285 287 288 286 280 270 266 267 266 265 261 259 258 265